GW2706 Weather Reports


time (UTC)temp
F
wind
direction
speed
knots
gust
knots
rain 1hr
in
rain 24hr
in
rain mn
in
humidity
%
barometer
mb
20260906150341 89 198 0.9 1.7 0.00 0.00 0.00 69 1015.5
20260906145840 88 237 0.9 0.9 0.00 0.00 0.00 70 1015.7
20260906145339 88 61 0.0 1.7 0.00 0.00 0.00 72 1015.7
20260906144834 87 132 0.0 2.6 0.00 0.00 0.00 75 1015.6
20260906144329 86 105 0.9 2.6 0.00 0.00 0.00 75 1015.5
20260906143829 86 12 0.9 2.6 0.00 0.00 0.00 76 1015.5
20260906143325 86 301 1.7 2.6 0.00 0.00 0.00 75 1015.6
20260906142820 85 261 2.6 2.6 0.00 0.00 0.00 76 1015.6
20260906142315 84 232 1.7 2.6 0.00 0.00 0.00 77 1015.8
20260906141815 84 83 0.9 1.7 0.00 0.00 0.00 78 1015.7
20260906141309 83 176 0.9 1.7 0.00 0.00 0.00 79 1015.4
20260906140802 83 341 0.9 1.7 0.00 0.00 0.00 80 1015.8
20260906140257 82 242 0.9 1.7 0.00 0.00 0.00 81 1015.7
20260906135755 82 72 0.9 1.7 0.00 0.00 0.00 82 1015.5
20260906135250 81 146 0.0 2.6 0.00 0.00 0.00 82 1015.5
20260906134746 81 244 0.9 0.9 0.00 0.00 0.00 83 1015.4
20260906134241 80 187 0.0 2.6 0.00 0.00 0.00 84 1015.4
20260906133736 79 175 0.9 1.7 0.00 0.00 0.00 86 1015.4
20260906133232 79 298 1.7 1.7 0.00 0.00 0.00 86 1015.4
20260906132727 78 234 0.9 1.7 0.00 0.00 0.00 87 1015.3
20260906132222 78 224 0.0 0.0 0.00 0.00 0.00 89 1015.5
20260906131718 77 156 0.0 0.0 0.00 0.00 0.00 91 1015.3
20260906131213 76 182 0.0 0.0 0.00 0.00 0.00 93 1015.4
20260906130708 75 211 0.0 0.0 0.00 0.00 0.00 94 1015.4
20260906130203 75 196 0.0 0.0 0.00 0.00 0.00 94 1015.3
20260906125701 75 214 0.0 0.0 0.00 0.00 0.00 95 1015.2
20260906125200 74 208 0.0 0.0 0.00 0.00 0.00 95 1015.2
20260906124655 74 255 0.0 0.0 0.00 0.00 0.00 95 1015.2
20260906124151 74 215 0.0 0.0 0.00 0.00 0.00 95 1015.0
20260906123649 74 212 0.0 0.0 0.00 0.00 0.00 95 1015.0
20260906123145 74 206 0.0 0.0 0.00 0.00 0.00 96 1014.9
20260906122644 73 203 0.0 0.0 0.00 0.00 0.00 96 1015.0
20260906122140 73 199 0.0 0.0 0.00 0.00 0.00 96 1014.9
20260906121636 73 229 0.0 0.0 0.00 0.00 0.00 96 1014.9
20260906121132 73 180 0.0 0.0 0.00 0.00 0.00 96 1014.7
20260906120627 73 174 0.0 0.0 0.00 0.00 0.00 96 1014.8
20260906120125 73 199 0.0 0.0 0.00 0.00 0.00 96 1014.6
20260906115625 73 170 0.0 0.0 0.00 0.00 0.00 96 1014.7
20260906115120 73 180 0.0 0.0 0.00 0.00 0.00 96 1014.6
20260906114613 73 218 0.0 0.0 0.00 0.00 0.00 96 1014.7
20260906114108 73 169 0.0 0.0 0.00 0.00 0.00 96 1014.5
20260906113603 73 182 0.0 0.0 0.00 0.00 0.00 96 1014.5
20260906113058 73 229 0.0 0.0 0.00 0.00 0.00 96 1014.3
20260906112557 73 196 0.0 0.0 0.00 0.00 0.00 96 1014.7
20260906112055 73 233 0.0 0.0 0.00 0.00 0.00 96 1014.4
20260906111553 73 255 0.0 0.0 0.00 0.00 0.00 95 1014.5
20260906111049 73 210 0.0 0.0 0.00 0.00 0.00 95 1014.4
20260906110549 73 174 0.0 0.0 0.00 0.00 0.00 95 1014.1
20260906110048 74 290 0.0 0.0 0.00 0.00 0.00 95 1014.3
20260906105543 74 194 0.0 0.0 0.00 0.00 0.00 95 1014.0
20260906105039 74 195 0.0 0.0 0.00 0.00 0.00 95 1013.9
20260906104537 74 245 0.0 0.0 0.00 0.00 0.00 95 1014.0
20260906104032 74 201 0.0 0.0 0.00 0.00 0.00 95 1013.9
20260906103530 74 201 0.0 0.0 0.00 0.00 0.00 95 1013.8
20260906103026 74 181 0.0 0.0 0.00 0.00 0.00 95 1013.9
20260906102526 74 328 0.0 0.0 0.00 0.00 0.00 94 1013.9
20260906102021 74 179 0.0 0.0 0.00 0.00 0.00 94 1013.9
20260906101515 75 234 0.0 0.0 0.00 0.00 0.00 94 1013.7
20260906101010 75 198 0.0 0.0 0.00 0.00 0.00 94 1013.9
20260906100506 75 138 0.0 0.0 0.00 0.00 0.00 94 1013.7
20260906100000 75 171 0.0 0.0 0.00 0.00 0.00 94 1013.7
20260906095455 75 138 0.0 0.0 0.00 0.00 0.00 94 1013.7
20260906094950 75 133 0.0 0.0 0.00 0.00 0.00 94 1013.5
20260906094449 75 303 0.0 0.0 0.00 0.00 0.00 94 1013.6
20260906093946 75 240 0.0 0.0 0.00 0.00 0.00 94 1013.6
20260906093441 75 165 0.0 0.0 0.00 0.00 0.00 94 1013.5
20260906092936 75 142 0.0 0.0 0.00 0.00 0.00 94 1013.4
20260906092436 75 104 0.0 0.0 0.00 0.00 0.00 94 1013.5
20260906091931 75 203 0.0 0.0 0.00 0.00 0.00 94 1013.5
20260906091427 75 208 0.0 0.0 0.00 0.00 0.00 93 1013.5
20260906090923 75 157 0.0 0.0 0.00 0.00 0.00 93 1013.5
20260906090418 76 223 0.0 0.0 0.00 0.00 0.00 93 1013.5
20260906085912 76 38 0.0 0.0 0.00 0.00 0.00 92 1013.6
20260906085406 76 197 0.0 0.0 0.00 0.00 0.00 92 1013.6
20260906084905 76 195 0.0 0.0 0.00 0.00 0.00 92 1013.6
20260906084401 76 143 0.0 0.0 0.00 0.00 0.00 91 1013.4
20260906083859 76 133 0.0 0.0 0.00 0.00 0.00 92 1013.3
20260906083355 76 104 0.0 0.0 0.00 0.00 0.00 92 1013.4
20260906082855 76 111 0.0 0.0 0.00 0.00 0.00 92 1013.5
20260906082350 76 172 0.0 0.0 0.00 0.00 0.00 92 1013.4
20260906081846 77 165 0.0 0.0 0.00 0.00 0.00 92 1013.3
20260906081341 77 164 0.0 0.0 0.00 0.00 0.00 92 1013.2
20260906080837 77 146 0.0 0.0 0.00 0.00 0.00 92 1013.4
20260906080334 77 100 0.9 0.9 0.00 0.00 0.00 92 1013.4
20260906075833 77 217 0.0 0.0 0.00 0.00 0.00 91 1013.3
20260906075333 77 178 0.0 0.9 0.00 0.00 0.00 91 1013.5
20260906074828 77 120 0.0 0.9 0.00 0.00 0.00 92 1013.3
20260906074328 77 86 0.0 0.0 0.00 0.00 0.00 92 1013.6
20260906073827 77 122 0.9 1.7 0.00 0.00 0.00 92 1013.5
20260906073322 77 182 0.0 0.0 0.00 0.00 0.00 92 1013.5
20260906072819 76 112 0.9 0.9 0.00 0.00 0.00 93 1013.5
20260906072314 76 149 0.0 1.7 0.00 0.00 0.00 93 1013.6
20260906071809 76 120 0.9 0.9 0.00 0.00 0.00 93 1013.5
20260906071304 76 309 1.7 1.7 0.00 0.00 0.00 93 1013.5
20260906070800 76 170 0.0 0.0 0.00 0.00 0.00 93 1013.5
20260906070256 76 171 0.0 0.0 0.00 0.00 0.00 93 1013.4
20260906065750 76 188 0.0 1.7 0.00 0.00 0.00 93 1013.5
20260906065245 76 290 1.7 2.6 0.00 0.00 0.00 93 1013.5
20260906064741 76 171 0.0 0.0 0.00 0.00 0.00 93 1013.7
20260906064237 76 306 1.7 1.7 0.00 0.00 0.00 93 1013.6
20260906063731 76 182 0.0 0.0 0.00 0.00 0.00 93 1013.8
20260906063227 76 164 0.0 0.0 0.00 0.00 0.00 93 1013.6
20260906062722 76 257 0.0 1.7 0.00 0.00 0.00 93 1013.7
20260906062221 76 231 0.0 0.9 0.00 0.00 0.00 93 1013.8
20260906061717 76 196 0.9 0.9 0.00 0.00 0.00 93 1013.6
20260906061213 76 263 1.7 2.6 0.00 0.00 0.00 93 1013.5
20260906060709 76 226 0.9 1.7 0.00 0.00 0.00 93 1013.6
20260906060206 77 312 2.6 2.6 0.00 0.00 0.00 93 1013.8
20260906055701 77 240 0.9 1.7 0.00 0.00 0.00 92 1013.7
20260906055156 77 251 0.9 1.7 0.00 0.00 0.00 92 1013.7
20260906054651 77 205 0.0 0.0 0.00 0.00 0.00 92 1013.8
20260906054146 77 223 0.0 0.0 0.00 0.00 0.00 91 1013.7
20260906053643 77 228 0.0 0.0 0.00 0.00 0.00 91 1013.8
20260906053138 77 187 0.9 0.9 0.00 0.00 0.00 91 1013.8
20260906052633 77 191 0.0 0.0 0.00 0.00 0.00 92 1013.8
20260906052129 77 172 0.0 0.0 0.00 0.00 0.00 93 1013.7
20260906051625 77 147 0.0 0.0 0.00 0.00 0.00 93 1013.7
20260906051120 77 148 0.0 0.0 0.00 0.00 0.00 93 1013.7
20260906050616 77 137 0.0 0.0 0.00 0.00 0.00 93 1013.8
20260906050111 77 178 0.0 0.0 0.00 0.00 0.00 93 1013.6
20260906045609 77 194 0.0 0.9 0.00 0.00 0.00 93 1013.6
20260906045104 77 199 0.9 0.9 0.00 0.00 0.00 93 1013.5
20260906044600 77 246 0.9 1.7 0.00 0.00 0.00 93 1013.6
20260906044055 77 295 1.7 1.7 0.00 0.00 0.00 92 1013.5
20260906043551 77 192 0.0 0.9 0.00 0.00 0.00 92 1013.4
20260906043047 77 201 0.9 1.7 0.00 0.00 0.00 92 1013.4
20260906042545 77 285 1.7 1.7 0.00 0.00 0.00 92 1013.4
20260906042040 77 294 0.0 0.0 0.00 0.00 0.00 91 1013.4
20260906041536 78 247 0.0 0.0 0.00 0.00 0.00 91 1013.5
20260906041031 78 176 0.0 0.0 0.00 0.00 0.00 90 1013.3
20260906040526 78 157 0.0 0.0 0.00 0.00 0.00 89 1013.5
20260906040022 78 142 0.0 0.0 0.00 0.00 0.00 89 1013.4
20260906035516 78 135 0.0 0.0 0.00 0.00 0.00 89 1013.3
20260906035013 78 147 0.0 0.0 0.00 0.00 0.00 89 1013.5
20260906034513 78 133 0.0 0.0 0.00 0.00 0.00 89 1013.6
20260906034008 78 142 0.0 0.0 0.00 0.00 0.00 90 1013.5
20260906033502 78 128 0.0 0.0 0.00 0.00 0.00 90 1013.5
20260906032957 79 144 0.0 0.0 0.00 0.00 0.00 90 1013.5
20260906032449 79 187 0.0 0.0 0.00 0.00 0.00 89 1013.4
20260906031948 79 169 0.0 0.0 0.00 0.00 0.00 88 1013.5
20260906031444 79 169 0.0 0.0 0.00 0.00 0.00 87 1013.4
20260906030939 79 164 0.0 0.0 0.00 0.00 0.00 87 1013.6
20260906030433 80 173 0.0 0.0 0.00 0.00 0.00 87 1013.4
20260906025928 80 167 0.0 0.0 0.00 0.00 0.00 85 1013.2
20260906025422 80 131 0.0 0.0 0.00 0.00 0.00 85 1013.3
20260906024921 80 141 0.0 0.0 0.00 0.00 0.00 84 1013.3
20260906024421 80 143 0.0 0.0 0.00 0.00 0.00 84 1013.1
20260906023916 80 125 0.0 0.0 0.00 0.00 0.00 84 1013.2
20260906023413 80 126 0.0 0.0 0.00 0.00 0.00 84 1013.1
20260906022912 80 136 0.0 0.0 0.00 0.00 0.00 85 1013.2
20260906022407 81 123 0.0 0.0 0.00 0.00 0.00 85 1013.0
20260906021903 81 124 0.0 0.0 0.00 0.00 0.00 85 1013.1
20260906021402 81 129 0.0 0.0 0.00 0.00 0.00 85 1013.0
20260906020856 81 158 0.0 0.0 0.00 0.00 0.00 86 1013.0
20260906020351 81 150 0.0 0.0 0.00 0.00 0.00 86 1012.8
20260906015846 81 166 0.0 0.0 0.00 0.00 0.00 85 1012.6
20260906015345 81 179 0.0 0.9 0.00 0.00 0.00 85 1012.7
20260906014844 81 121 0.0 0.0 0.00 0.00 0.00 85 1012.6
20260906014339 81 128 0.0 0.0 0.00 0.00 0.00 85 1012.4
20260906013835 81 145 0.0 0.0 0.00 0.00 0.00 86 1012.4
20260906013331 81 273 0.9 1.7 0.00 0.00 0.00 85 1012.6
20260906012826 81 173 0.0 0.9 0.00 0.00 0.00 85 1012.4
20260906012321 82 119 0.9 0.9 0.00 0.00 0.00 85 1012.5
20260906011815 83 235 0.9 1.7 0.00 0.00 0.00 81 1012.2
20260906011310 83 145 0.0 1.7 0.00 0.00 0.00 79 1012.4
20260906010806 83 82 0.0 0.0 0.00 0.00 0.00 78 1012.1
20260906010302 83 139 0.0 0.0 0.00 0.00 0.00 78 1011.9
20260906005757 83 111 0.0 0.9 0.00 0.00 0.00 79 1011.9
20260906005256 84 121 0.0 0.9 0.00 0.00 0.00 77 1011.9
20260906004755 84 101 0.9 1.7 0.00 0.00 0.00 76 1011.9
20260906004250 85 133 0.0 0.0 0.00 0.00 0.00 75 1011.8
20260906003750 85 98 0.0 0.0 0.00 0.00 0.00 74 1012.1
20260906003246 85 131 0.0 0.0 0.00 0.00 0.00 74 1012.1
20260906002740 85 130 0.0 0.9 0.00 0.00 0.00 73 1011.9
20260906002235 86 62 0.9 0.9 0.00 0.00 0.00 72 1011.9
20260906001730 86 133 0.0 0.0 0.00 0.00 0.00 72 1012.1
20260906001225 86 116 0.9 0.9 0.00 0.00 0.00 72 1012.1
20260906000721 86 51 0.9 0.9 0.00 0.00 0.00 73 1012.2
20260906000215 87 213 0.9 0.9 0.00 0.00 0.00 74 1012.2
20260905235715 88 306 2.6 2.6 0.00 0.00 0.00 72 1012.3
20260905235210 88 130 0.0 0.9 0.00 0.00 0.00 67 1012.5
20260905234706 89 87 0.9 0.9 0.00 0.00 0.00 67 1012.3
20260905234201 89 81 0.9 1.7 0.00 0.00 0.00 65 1012.3
20260905233656 90 39 0.9 1.7 0.00 0.00 0.00 64 1012.3
20260905233155 91 114 0.0 0.0 0.00 0.00 0.00 63 1012.1
20260905232651 92 138 0.0 0.0 0.00 0.00 0.00 60 1012.1
20260905232146 94 228 0.9 0.9 0.00 0.00 0.00 58 1012.3
20260905231641 95 171 0.0 0.9 0.00 0.00 0.00 57 1012.3
20260905231137 96 161 0.9 0.9 0.00 0.00 0.00 53 1012.2
20260905230633 97 287 2.6 2.6 0.00 0.00 0.00 51 1012.3
20260905230131 97 250 1.7 1.7 0.00 0.00 0.00 51 1012.2
20260905225631 97 115 1.7 1.7 0.00 0.00 0.00 49 1012.2
20260905225126 97 145 0.9 2.6 0.00 0.00 0.00 54 1012.2
20260905224625 98 260 1.7 1.7 0.00 0.00 0.00 53 1012.1
20260905224125 99 274 1.7 1.7 0.00 0.00 0.00 49 1012.0
20260905223622 98 205 0.9 0.9 0.00 0.00 0.00 50 1012.1
20260905223118 97 172 0.9 1.7 0.00 0.00 0.00 53 1012.1
20260905222613 97 258 2.6 2.6 0.00 0.00 0.00 50 1012.2
20260905222108 98 294 2.6 2.6 0.00 0.00 0.00 54 1012.1
20260905221604 98 277 1.7 1.7 0.00 0.00 0.00 52 1012.2
20260905221100 98 258 1.7 1.7 0.00 0.00 0.00 52 1012.3
20260905220555 98 267 0.9 1.7 0.00 0.00 0.00 52 1012.4
20260905220051 98 277 2.6 2.6 0.00 0.00 0.00 50 1012.3
20260905215550 98 257 2.6 4.3 0.00 0.00 0.00 52 1012.5
20260905215046 99 299 3.5 4.3 0.00 0.00 0.00 50 1012.6
20260905214542 99 358 2.6 4.3 0.00 0.00 0.00 52 1012.3
20260905214037 99 226 2.6 2.6 0.00 0.00 0.00 49 1012.4
20260905213532 99 194 1.7 1.7 0.00 0.00 0.00 50 1012.4
20260905213028 98 311 2.6 4.3 0.00 0.00 0.00 51 1012.6
20260905212522 98 277 3.5 4.3 0.00 0.00 0.00 53 1012.3
20260905212022 98 144 0.9 2.6 0.00 0.00 0.00 51 1012.2
20260905211517 98 273 2.6 4.3 0.00 0.00 0.00 54 1012.3
20260905211013 97 282 3.5 4.3 0.00 0.00 0.00 59 1012.2
20260905210509 96 287 3.5 5.2 0.00 0.00 0.00 60 1012.3
20260905210009 96 316 3.5 4.3 0.00 0.00 0.00 63 1012.4
20260905205503 95 299 3.5 4.3 0.00 0.00 0.00 61 1012.4
20260905205002 95 262 2.6 2.6 0.00 0.00 0.00 62 1012.4
20260905204457 94 261 3.5 4.3 0.00 0.00 0.00 65 1012.5
20260905203956 93 286 2.6 4.3 0.00 0.00 0.00 67 1012.7
20260905203452 93 302 3.5 4.3 0.00 0.00 0.00 67 1012.8
20260905202947 93 254 0.0 0.0 0.00 0.00 0.00 63 1012.8
20260905202442 95 117 0.0 0.0 0.00 0.00 0.00 62 1012.8
20260905201938 98 132 0.0 0.0 0.00 0.00 0.00 57 1013.0
20260905201433 98 186 0.0 0.9 0.00 0.00 0.00 54 1013.0
20260905200927 97 149 0.0 0.9 0.00 0.00 0.00 58 1013.1
20260905200423 96 227 1.7 1.7 0.00 0.00 0.00 55 1013.1
20260905195921 96 162 0.0 0.0 0.00 0.00 0.00 56 1013.1
20260905195416 95 161 0.0 0.0 0.00 0.00 0.00 57 1013.4
20260905194912 95 137 0.0 0.0 0.00 0.00 0.00 59 1013.4
20260905194411 95 135 0.0 0.0 0.00 0.00 0.00 58 1013.4
20260905193906 95 155 0.9 0.9 0.00 0.00 0.00 56 1013.5
20260905193401 94 129 0.0 0.0 0.00 0.00 0.00 58 1013.5
20260905192856 94 138 0.0 0.0 0.00 0.00 0.00 59 1013.5
20260905192351 94 88 0.0 0.0 0.00 0.00 0.00 57 1013.4
20260905191851 93 121 0.9 0.9 0.00 0.00 0.00 57 1013.5
20260905191349 93 132 0.0 0.0 0.00 0.00 0.00 57 1013.6
20260905190849 94 136 0.0 0.9 0.00 0.00 0.00 57 1013.6
20260905190343 95 120 0.9 0.9 0.00 0.00 0.00 54 1013.8
20260905185841 96 114 0.0 0.9 0.00 0.00 0.00 53 1013.9
20260905185337 98 119 0.0 0.0 0.00 0.00 0.00 51 1014.1
20260905184836 99 114 0.0 0.9 0.00 0.00 0.00 48 1014.0
20260905184335 99 126 0.0 0.0 0.00 0.00 0.00 47 1014.1
20260905183828 100 166 0.9 1.7 0.00 0.00 0.00 43 1014.0
20260905183324 102 285 5.2 6.1 0.00 0.00 0.00 42 1014.3
20260905182823 102 239 2.6 4.3 0.00 0.00 0.00 41 1014.3
20260905182318 102 301 2.6 4.3 0.00 0.00 0.00 42 1014.1
20260905181813 100 169 0.0 0.0 0.00 0.00 0.00 44 1013.9
20260905181307 101 158 0.0 0.9 0.00 0.00 0.00 43 1014.0
20260905180806 100 154 0.0 0.9 0.00 0.00 0.00 43 1014.1
20260905180301 101 150 1.7 4.3 0.00 0.00 0.00 41 1014.0
20260905175756 101 153 0.9 1.7 0.00 0.00 0.00 41 1014.4
20260905175251 100 222 0.9 2.6 0.00 0.00 0.00 42 1014.4
20260905174746 100 98 2.6 5.2 0.00 0.00 0.00 45 1014.4
20260905174242 99 211 0.9 1.7 0.00 0.00 0.00 44 1014.5
20260905173737 100 217 0.9 5.2 0.00 0.00 0.00 44 1014.4
20260905173233 102 270 1.7 4.3 0.00 0.00 0.00 42 1014.7
20260905172732 101 160 1.7 2.6 0.00 0.00 0.00 43 1014.6
20260905172227 99 140 0.0 0.9 0.00 0.00 0.00 46 1014.7
20260905171723 98 248 1.7 4.3 0.00 0.00 0.00 45 1014.5
20260905171219 99 301 2.6 5.2 0.00 0.00 0.00 45 1014.8
20260905170716 98 115 0.0 1.7 0.00 0.00 0.00 46 1014.8
20260905170216 99 296 3.5 5.2 0.00 0.00 0.00 45 1014.8
20260905165715 99 276 2.6 2.6 0.00 0.00 0.00 47 1014.8
20260905165211 98 260 1.7 1.7 0.00 0.00 0.00 47 1014.9
20260905164710 97 283 1.7 2.6 0.00 0.00 0.00 48 1014.9
20260905164205 97 218 2.6 4.3 0.00 0.00 0.00 47 1014.9
20260905163701 96 201 1.7 1.7 0.00 0.00 0.00 47 1015.0
20260905163157 97 292 3.5 5.2 0.00 0.00 0.00 46 1015.0
20260905162653 98 287 1.7 1.7 0.00 0.00 0.00 46 1015.1
20260905162152 98 227 0.0 0.9 0.00 0.00 0.00 49 1015.3
20260905161647 98 175 0.0 1.7 0.00 0.00 0.00 49 1015.1
20260905161144 97 170 0.0 0.9 0.00 0.00 0.00 51 1015.1
20260905160638 97 175 0.9 2.6 0.00 0.00 0.00 50 1015.3
20260905160133 96 140 0.0 1.7 0.00 0.00 0.00 52 1015.3
20260905155633 96 153 0.0 0.9 0.00 0.00 0.00 53 1015.2
20260905155131 96 142 0.0 0.9 0.00 0.00 0.00 55 1015.3
20260905154626 96 117 0.9 0.9 0.00 0.00 0.00 53 1015.4
20260905154122 95 78 0.9 0.9 0.00 0.00 0.00 56 1015.3
20260905153617 95 101 0.9 1.7 0.00 0.00 0.00 56 1015.3
20260905153113 93 117 0.0 0.9 0.00 0.00 0.00 60 1015.4
20260905152608 94 203 0.9 1.7 0.00 0.00 0.00 57 1015.4
20260905152102 94 147 0.0 0.9 0.00 0.00 0.00 58 1015.3
20260905151557 93 157 0.0 1.7 0.00 0.00 0.00 61 1015.3
20260905151052 90 137 0.0 0.9 0.00 0.00 0.00 65 1015.3
20260905150548 89 192 0.9 2.6 0.00 0.00 0.00 63 1015.1